ITY255 EDDF-LFSB

Flight info

Callsign ITY255
Flight time N/A
Altitude 21000
Route ANEKI2L/18 ANEKI Y163 PABLA T715 RIGVI
Aircraft A320/M-SDE3FGHIRWY/LB1

Departure

Time 2026-05-05 18:14
Airport Frankfurt Main Airport (EDDF)

Arrival

Time N/A
Airport EuroAirport Basel–Mulhouse–Freiburg (LFSB)
Time Latitude Longitude Altitude Speed Heading
2026-05-05 17:26 50.04725 8.58121 358 ft 0 kts 160°
2026-05-05 17:49 50.04739 8.58114 358 ft 2 kts 161°
2026-05-05 17:49 50.04753 8.58106 358 ft 2 kts 160°
2026-05-05 17:50 50.04767 8.58098 359 ft 2 kts 160°
2026-05-05 17:50 50.04780 8.58089 359 ft 2 kts 157°
2026-05-05 17:50 50.04794 8.58081 359 ft 2 kts 161°
2026-05-05 17:50 50.04808 8.58073 359 ft 2 kts 159°
2026-05-05 17:51 50.04822 8.58066 359 ft 2 kts 177°
2026-05-05 17:51 50.04834 8.58069 359 ft 2 kts 216°
2026-05-05 17:51 50.04841 8.58080 359 ft 1 kts 245°
2026-05-05 17:51 50.04843 8.58092 360 ft 1 kts 250°
2026-05-05 17:52 50.04844 8.58095 360 ft 0 kts 249°
2026-05-05 17:56 50.04841 8.58086 359 ft 4 kts 249°
2026-05-05 17:56 50.04824 8.58019 358 ft 9 kts 249°
2026-05-05 17:56 50.04776 8.57942 355 ft 12 kts 204°
2026-05-05 17:57 50.04704 8.57856 352 ft 15 kts 238°
2026-05-05 17:57 50.04663 8.57701 351 ft 16 kts 250°
2026-05-05 17:57 50.04624 8.57534 350 ft 17 kts 251°
2026-05-05 17:57 50.04583 8.57366 352 ft 16 kts 250°
2026-05-05 17:58 50.04544 8.57205 352 ft 16 kts 250°
2026-05-05 17:58 50.04504 8.57036 350 ft 17 kts 250°
2026-05-05 17:58 50.04461 8.56860 349 ft 18 kts 250°
2026-05-05 17:58 50.04415 8.56667 345 ft 20 kts 251°
2026-05-05 17:59 50.04367 8.56461 343 ft 21 kts 249°
2026-05-05 17:59 50.04315 8.56242 340 ft 22 kts 250°
2026-05-05 17:59 50.04261 8.56018 337 ft 23 kts 250°
2026-05-05 17:59 50.04205 8.55786 335 ft 23 kts 250°
2026-05-05 18:00 50.04150 8.55554 336 ft 22 kts 250°
2026-05-05 18:00 50.04097 8.55331 335 ft 22 kts 250°
2026-05-05 18:00 50.04042 8.55104 332 ft 23 kts 249°
2026-05-05 18:00 50.03983 8.54861 328 ft 24 kts 250°
2026-05-05 18:01 50.03923 8.54610 324 ft 25 kts 250°
2026-05-05 18:01 50.03854 8.54366 323 ft 25 kts 240°
2026-05-05 18:01 50.03782 8.54136 325 ft 23 kts 249°
2026-05-05 18:01 50.03728 8.53921 328 ft 20 kts 249°
2026-05-05 18:02 50.03680 8.53720 328 ft 20 kts 250°
2026-05-05 18:02 50.03629 8.53520 327 ft 20 kts 249°
2026-05-05 18:02 50.03604 8.53418 327 ft 0 kts 251°
2026-05-05 18:03 50.03600 8.53403 327 ft 5 kts 251°
2026-05-05 18:03 50.03579 8.53315 324 ft 13 kts 249°
2026-05-05 18:03 50.03544 8.53171 322 ft 15 kts 250°
2026-05-05 18:03 50.03526 8.53098 322 ft 0 kts 251°
2026-05-05 18:04 50.03520 8.53068 322 ft 1 kts 252°
2026-05-05 18:04 50.03519 8.53065 322 ft 2 kts 252°
2026-05-05 18:05 50.03496 8.52970 322 ft 11 kts 248°
2026-05-05 18:05 50.03486 8.52930 321 ft 14 kts 248°
2026-05-05 18:05 50.03473 8.52884 321 ft 0 kts 248°
2026-05-05 18:07 50.03472 8.52880 321 ft 1 kts 248°
2026-05-05 18:07 50.03458 8.52823 321 ft 8 kts 248°
2026-05-05 18:07 50.03454 8.52809 321 ft 0 kts 248°
2026-05-05 18:09 50.03453 8.52807 320 ft 1 kts 248°
2026-05-05 18:09 50.03437 8.52746 320 ft 3 kts 248°
2026-05-05 18:10 50.03437 8.52745 320 ft 0 kts 248°
2026-05-05 18:12 50.03434 8.52734 320 ft 11 kts 248°
2026-05-05 18:12 50.03374 8.52626 319 ft 15 kts 204°
2026-05-05 18:12 50.03309 8.52609 317 ft 0 kts 181°
2026-05-05 18:13 50.03308 8.52609 317 ft 1 kts 181°
2026-05-05 18:13 50.03134 8.52619 313 ft 70 kts 179°
2026-05-05 18:13 50.02360 8.52621 307 ft 150 kts 180°
2026-05-05 18:13 50.01210 8.52653 931 ft 167 kts 178°
2026-05-05 18:14 50.00065 8.52746 1786 ft 174 kts 180°
2026-05-05 18:14 49.98819 8.52821 2445 ft 190 kts 181°
2026-05-05 18:14 49.97449 8.52896 3112 ft 208 kts 181°
2026-05-05 18:14 49.95949 8.52983 3684 ft 228 kts 180°
2026-05-05 18:15 49.94349 8.53082 3938 ft 232 kts 180°
2026-05-05 18:15 49.92736 8.53187 3949 ft 232 kts 180°
2026-05-05 18:15 49.91115 8.53293 4054 ft 238 kts 180°
2026-05-05 18:15 49.89458 8.53401 4843 ft 243 kts 180°
2026-05-05 18:16 49.87824 8.53511 6041 ft 238 kts 181°
2026-05-05 18:16 49.86202 8.53617 7105 ft 238 kts 181°
2026-05-05 18:16 49.84563 8.53723 8096 ft 241 kts 181°
2026-05-05 18:16 49.82901 8.53829 9060 ft 244 kts 181°
2026-05-05 18:17 49.81216 8.53936 9973 ft 248 kts 181°
2026-05-05 18:17 49.79503 8.54045 10841 ft 251 kts 181°
2026-05-05 18:17 49.77769 8.54048 11718 ft 254 kts 186°
2026-05-05 18:17 49.76009 8.53849 12547 ft 259 kts 188°
2026-05-05 18:18 49.74220 8.53610 13376 ft 263 kts 188°
2026-05-05 18:18 49.72403 8.53366 14179 ft 266 kts 188°
2026-05-05 18:18 49.70572 8.53120 14980 ft 268 kts 187°
2026-05-05 18:18 49.68735 8.52874 15784 ft 267 kts 187°
2026-05-05 18:19 49.66890 8.52628 16609 ft 270 kts 186°
2026-05-05 18:19 49.65028 8.52382 17421 ft 272 kts 186°
2026-05-05 18:19 49.63153 8.52135 18245 ft 274 kts 186°
2026-05-05 18:19 49.61275 8.51886 19083 ft 274 kts 186°
2026-05-05 18:20 49.59394 8.51638 19897 ft 274 kts 185°
2026-05-05 18:20 49.57489 8.51389 20483 ft 282 kts 185°
2026-05-05 18:20 49.55512 8.50810 20780 ft 301 kts 197°
2026-05-05 18:20 49.53455 8.49699 20803 ft 328 kts 200°
2026-05-05 18:21 49.51239 8.48415 20803 ft 354 kts 200°
2026-05-05 18:21 49.48888 8.47078 20800 ft 367 kts 199°
2026-05-05 18:21 49.46489 8.45744 20796 ft 369 kts 199°
2026-05-05 18:21 49.44077 8.44425 20795 ft 370 kts 199°
2026-05-05 18:22 49.41656 8.43114 20801 ft 370 kts 199°
2026-05-05 18:22 49.39240 8.41817 20798 ft 370 kts 199°
2026-05-05 18:22 49.36812 8.40522 20812 ft 370 kts 199°
2026-05-05 18:22 49.34391 8.39233 20812 ft 369 kts 199°
2026-05-05 18:23 49.32028 8.37976 20786 ft 353 kts 199°
2026-05-05 18:23 49.29773 8.36779 20797 ft 336 kts 199°
2026-05-05 18:23 49.27626 8.35641 20801 ft 320 kts 199°
2026-05-05 18:23 49.25580 8.34559 20791 ft 305 kts 198°
2026-05-05 18:24 49.23637 8.33532 20786 ft 289 kts 198°
2026-05-05 18:24 49.21791 8.32557 20780 ft 274 kts 198°
2026-05-05 18:24 49.20029 8.31627 20786 ft 266 kts 198°
2026-05-05 18:24 49.18291 8.30713 20794 ft 266 kts 198°
2026-05-05 18:25 49.16546 8.29795 20797 ft 265 kts 198°
2026-05-05 18:25 49.15386 8.29185 20802 ft 268 kts 198°
2026-05-05 18:25 49.12889 8.27876 20813 ft 304 kts 198°
2026-05-05 18:25 49.10808 8.26786 20808 ft 329 kts 198°
2026-05-05 18:26 49.08620 8.25639 20798 ft 336 kts 198°
2026-05-05 18:26 49.06405 8.24479 20799 ft 338 kts 198°
2026-05-05 18:26 49.04188 8.23318 20799 ft 339 kts 198°
2026-05-05 18:26 49.01968 8.22156 20789 ft 339 kts 198°
2026-05-05 18:27 48.99749 8.20996 20797 ft 339 kts 198°
2026-05-05 18:27 48.97530 8.19837 20795 ft 338 kts 198°
2026-05-05 18:27 48.95310 8.18679 20795 ft 339 kts 198°
2026-05-05 18:27 48.93091 8.17524 20795 ft 338 kts 198°
2026-05-05 18:28 48.88662 8.15217 20800 ft 338 kts 198°
2026-05-05 18:28 48.86449 8.14067 20802 ft 335 kts 198°
2026-05-05 18:28 48.84300 8.12950 20797 ft 319 kts 198°
2026-05-05 18:29 48.82245 8.11883 20807 ft 311 kts 198°
2026-05-05 18:29 48.80215 8.10832 20778 ft 307 kts 198°
2026-05-05 18:29 48.78199 8.09789 20380 ft 309 kts 198°
2026-05-05 18:29 48.76173 8.08743 19917 ft 309 kts 198°
2026-05-05 18:30 48.74164 8.07707 19582 ft 304 kts 199°
2026-05-05 18:30 48.72185 8.06686 19251 ft 300 kts 199°
2026-05-05 18:30 48.70225 8.05676 18921 ft 299 kts 199°
2026-05-05 18:30 48.68260 8.04664 18594 ft 298 kts 199°
2026-05-05 18:31 48.66316 8.03661 18260 ft 296 kts 200°
2026-05-05 18:31 48.64383 8.02666 17937 ft 294 kts 200°
2026-05-05 18:31 48.62458 8.01674 17608 ft 292 kts 200°
2026-05-05 18:31 48.60562 8.00699 17283 ft 288 kts 200°
2026-05-05 18:32 48.58689 7.99737 16954 ft 284 kts 200°
2026-05-05 18:32 48.56836 7.98787 16628 ft 280 kts 200°
2026-05-05 18:32 48.55009 7.97851 16305 ft 277 kts 200°
2026-05-05 18:32 48.53206 7.96928 15981 ft 274 kts 200°
2026-05-05 18:33 48.51422 7.96014 15653 ft 270 kts 200°
2026-05-05 18:33 48.49656 7.95111 15326 ft 268 kts 200°
2026-05-05 18:33 48.47908 7.94216 15000 ft 266 kts 201°
2026-05-05 18:33 48.46166 7.93327 14678 ft 265 kts 201°
2026-05-05 18:34 48.44430 7.92441 14355 ft 264 kts 201°
2026-05-05 18:34 48.42703 7.91561 14025 ft 262 kts 201°
2026-05-05 18:34 48.40992 7.90688 13825 ft 260 kts 201°
2026-05-05 18:34 48.39278 7.89814 13820 ft 261 kts 201°
2026-05-05 18:35 48.37597 7.88966 13812 ft 252 kts 199°
2026-05-05 18:35 48.35903 7.88346 13815 ft 252 kts 193°
2026-05-05 18:35 48.34173 7.87997 13817 ft 252 kts 190°
2026-05-05 18:35 48.32438 7.87697 13818 ft 252 kts 190°
2026-05-05 18:36 48.30763 7.87107 13771 ft 246 kts 211°
2026-05-05 18:36 48.29565 7.85381 13483 ft 241 kts 236°
2026-05-05 18:36 48.28668 7.83262 13088 ft 243 kts 236°
2026-05-05 18:36 48.27744 7.81159 12724 ft 243 kts 236°
2026-05-05 18:37 48.26804 7.79081 12393 ft 241 kts 235°
2026-05-05 18:37 48.25858 7.77025 12059 ft 240 kts 235°
2026-05-05 18:37 48.24910 7.74986 11714 ft 239 kts 235°
2026-05-05 18:37 48.23961 7.72960 11390 ft 238 kts 235°
2026-05-05 18:38 48.23015 7.70947 11056 ft 237 kts 235°
2026-05-05 18:38 48.22076 7.68960 10832 ft 232 kts 235°
2026-05-05 18:38 48.21140 7.66978 10823 ft 235 kts 235°
2026-05-05 18:38 48.20200 7.64989 10818 ft 235 kts 235°
2026-05-05 18:39 48.19258 7.63000 10812 ft 235 kts 235°
2026-05-05 18:39 48.18315 7.61013 10812 ft 234 kts 235°
2026-05-05 18:39 48.17374 7.59031 10820 ft 235 kts 235°
2026-05-05 18:39 48.16405 7.57074 10814 ft 235 kts 227°
2026-05-05 18:40 48.15150 7.55537 10642 ft 233 kts 216°
2026-05-05 18:40 48.13788 7.54231 10259 ft 235 kts 214°
2026-05-05 18:40 48.12395 7.52963 9916 ft 234 kts 214°
2026-05-05 18:40 48.11011 7.51721 9825 ft 234 kts 213°
2026-05-05 18:41 48.09613 7.50468 9822 ft 235 kts 213°
2026-05-05 18:41 48.08212 7.49211 9822 ft 236 kts 213°
2026-05-05 18:41 48.06812 7.47952 9818 ft 236 kts 214°
2026-05-05 18:41 48.05415 7.46700 9787 ft 232 kts 214°
2026-05-05 18:42 48.04040 7.45472 9485 ft 232 kts 214°
2026-05-05 18:42 48.02659 7.44249 9120 ft 232 kts 214°
2026-05-05 18:42 48.01276 7.43032 8792 ft 231 kts 214°
2026-05-05 18:42 47.99899 7.41826 8483 ft 230 kts 214°
2026-05-05 18:43 47.98531 7.40634 8152 ft 229 kts 214°
2026-05-05 18:43 47.97166 7.39444 7854 ft 226 kts 214°
2026-05-05 18:43 47.95837 7.38291 7692 ft 218 kts 214°
2026-05-05 18:43 47.94544 7.37172 7448 ft 214 kts 214°
2026-05-05 18:44 47.93265 7.36064 7135 ft 213 kts 214°
2026-05-05 18:44 47.91979 7.35024 6976 ft 212 kts 204°
2026-05-05 18:44 47.90494 7.34654 6754 ft 224 kts 186°
2026-05-05 18:44 47.88909 7.34847 6229 ft 237 kts 175°
2026-05-05 18:45 47.87300 7.35533 5703 ft 248 kts 161°
2026-05-05 18:45 47.85737 7.36581 5354 ft 247 kts 159°
2026-05-05 18:45 47.84167 7.37583 5011 ft 245 kts 161°
2026-05-05 18:45 47.82573 7.38424 4673 ft 243 kts 165°
2026-05-05 18:46 47.80965 7.39129 4330 ft 242 kts 162°
2026-05-05 18:46 47.79400 7.40016 3987 ft 242 kts 159°
2026-05-05 18:46 47.77850 7.40947 3644 ft 240 kts 159°
2026-05-05 18:46 47.76343 7.41851 3427 ft 227 kts 159°
2026-05-05 18:47 47.74911 7.42698 3069 ft 219 kts 159°
2026-05-05 18:47 47.73531 7.43507 2725 ft 210 kts 159°
2026-05-05 18:47 47.72209 7.44281 2370 ft 200 kts 159°
2026-05-05 18:47 47.70948 7.45017 2015 ft 192 kts 159°
2026-05-05 18:48 47.69710 7.45735 1793 ft 192 kts 159°
2026-05-05 18:48 47.68465 7.46456 1790 ft 193 kts 159°
2026-05-05 18:48 47.67220 7.47176 1789 ft 190 kts 159°
2026-05-05 18:48 47.66033 7.47863 1778 ft 178 kts 159°
2026-05-05 18:49 47.64927 7.48634 1773 ft 176 kts 142°
2026-05-05 18:49 47.64307 7.50155 1771 ft 176 kts 99°
2026-05-05 18:49 47.64352 7.51927 1791 ft 172 kts 82°
2026-05-05 18:49 47.64568 7.53663 1789 ft 171 kts 78°
2026-05-05 18:50 47.64826 7.55377 1788 ft 171 kts 77°
2026-05-05 18:50 47.65090 7.57085 1786 ft 169 kts 77°
2026-05-05 18:50 47.65347 7.58723 1773 ft 161 kts 77°
2026-05-05 18:50 47.65602 7.60329 1781 ft 160 kts 77°
2026-05-05 18:51 47.65719 7.61949 1770 ft 159 kts 103°
2026-05-05 18:51 47.65111 7.63239 1778 ft 157 kts 150°
2026-05-05 18:51 47.64077 7.63428 1812 ft 153 kts 196°
2026-05-05 18:51 47.63302 7.62411 1800 ft 154 kts 242°
2026-05-05 18:52 47.62873 7.60960 1803 ft 154 kts 236°
2026-05-05 18:52 47.62023 7.60075 1785 ft 153 kts 196°
2026-05-05 18:52 47.61011 7.59635 1787 ft 150 kts 200°
2026-05-05 18:52 47.60074 7.59018 1778 ft 147 kts 204°
2026-05-05 18:53 47.59209 7.58238 1771 ft 147 kts 225°
2026-05-05 18:53 47.58708 7.56947 1771 ft 147 kts 259°
2026-05-05 18:53 47.58728 7.55434 1792 ft 148 kts 268°
2026-05-05 18:53 47.58365 7.54072 1916 ft 151 kts 220°
2026-05-05 18:54 47.57396 7.53653 2516 ft 153 kts 172°
2026-05-05 18:54 47.56531 7.54465 3139 ft 155 kts 126°